GW4341 Weather Reports


time (UTC)temp
C
wind
direction
speed
KPH
gust
KPH
rain 1hr
cm
rain 24hr
cm
rain mn
cm
humidity
%
barometer
mb
20260504190651 16 172 8.0 9.7 0.00 0.00 0.00 26 1011.6
20260504190148 17 168 12.9 16.1 0.00 0.00 0.00 25 1011.6
20260504185645 16 33 3.2 4.8 0.00 0.00 0.00 26 1012.0
20260504185142 17 248 6.4 6.4 0.00 0.00 0.00 26 1012.1
20260504184638 16 84 1.6 1.6 0.00 0.00 0.00 27 1012.0
20260504184133 15 352 19.3 24.1 0.00 0.00 0.00 28 1012.3
20260504183630 16 256 11.3 14.5 0.00 0.00 0.00 28 1012.3
20260504183127 16 286 4.8 6.4 0.00 0.00 0.00 26 1012.2
20260504182625 16 190 6.4 6.4 0.00 0.00 0.00 26 1012.2
20260504182122 16 119 1.6 1.6 0.00 0.00 0.00 26 1011.8
20260504181620 16 141 4.8 6.4 0.00 0.00 0.00 26 1012.1
20260504181117 16 191 17.7 20.9 0.00 0.00 0.00 26 1012.2
20260504180616 16 183 20.9 27.4 0.00 0.00 0.00 26 1012.1
20260504180115 16 173 9.7 12.9 0.00 0.00 0.00 27 1012.3
20260504175611 16 242 9.7 12.9 0.00 0.00 0.00 26 1012.3
20260504175108 16 208 12.9 14.5 0.00 0.00 0.00 26 1012.5
20260504174606 15 159 9.7 11.3 0.00 0.00 0.00 27 1012.5
20260504174102 15 274 6.4 6.4 0.00 0.00 0.00 27 1012.5
20260504173559 15 125 1.6 1.6 0.00 0.00 0.00 27 1012.6
20260504173057 15 347 12.9 12.9 0.00 0.00 0.00 26 1012.6
20260504172553 16 336 9.7 11.3 0.00 0.00 0.00 27 1012.5
20260504172050 15 297 4.8 4.8 0.00 0.00 0.00 27 1012.7
20260504171546 16 345 14.5 14.5 0.00 0.00 0.00 28 1012.7
20260504171044 16 335 6.4 9.7 0.00 0.00 0.00 27 1012.6
20260504170539 15 112 9.7 12.9 0.00 0.00 0.00 28 1012.6
20260504150923 10 104 0.0 0.0 0.00 0.00 0.00 36 1013.1
20260504150420 9 104 0.0 1.6 0.00 0.00 0.00 38 1013.4
20260504140846 3 21 4.8 6.4 0.00 0.00 0.00 51 1013.8
20260504140342 2 96 4.8 6.4 0.00 0.00 0.00 52 1013.8
20260504130811 -1 94 0.0 0.0 0.00 0.00 0.00 66 1013.6
20260504130308 -1 86 1.6 1.6 0.00 0.00 0.00 66 1013.6
20260504120231 -2 19 1.6 3.2 0.00 0.00 0.00 66 1013.3
20260504110658 -2 66 0.0 0.0 0.00 0.00 0.00 65 1013.7
20260504110154 -2 59 0.0 0.0 0.00 0.00 0.00 66 1013.9
20260504100119 -1 336 4.8 4.8 0.00 0.00 0.00 65 1013.8
20260504081512 1 36 1.6 1.6 0.00 0.00 0.00 60 1014.2
20260504081007 1 28 3.2 4.8 0.00 0.00 0.00 61 1014.3
20260504080504 1 52 1.6 1.6 0.00 0.00 0.00 60 1014.0
20260504050317 5 337 9.7 11.3 0.00 0.00 0.00 49 1014.9
20260504045814 5 353 11.3 12.9 0.00 0.00 0.00 48 1015.0
20260504045309 5 319 9.7 12.9 0.00 0.00 0.00 48 1014.9
20260504044806 5 331 6.4 6.4 0.00 0.00 0.00 49 1014.9
20260504044303 5 333 6.4 6.4 0.00 0.00 0.00 48 1015.2
20260504043800 6 338 6.4 9.7 0.00 0.00 0.00 47 1015.2
20260504043257 5 340 6.4 6.4 0.00 0.00 0.00 48 1015.3
20260504042755 6 333 4.8 4.8 0.00 0.00 0.00 47 1014.9
20260504042251 6 356 3.2 3.2 0.00 0.00 0.00 46 1015.2
20260504041748 7 340 4.8 4.8 0.00 0.00 0.00 44 1015.3
20260504041244 6 291 4.8 4.8 0.00 0.00 0.00 44 1015.3
20260504040740 7 299 4.8 4.8 0.00 0.00 0.00 43 1015.2
20260504040238 6 276 4.8 4.8 0.00 0.00 0.00 44 1015.2
20260504035733 6 290 3.2 4.8 0.00 0.00 0.00 44 1015.2
20260504035230 7 297 8.0 9.7 0.00 0.00 0.00 43 1015.0
20260504034728 6 315 8.0 11.3 0.00 0.00 0.00 43 1015.0
20260504034225 8 349 4.8 4.8 0.00 0.00 0.00 39 1015.0
20260504033723 9 280 6.4 6.4 0.00 0.00 0.00 39 1014.9
20260504033220 9 251 8.0 11.3 0.00 0.00 0.00 38 1014.8
20260504032717 10 275 9.7 11.3 0.00 0.00 0.00 37 1014.9
20260504032214 10 256 8.0 9.7 0.00 0.00 0.00 36 1014.9
20260504031710 10 292 8.0 9.7 0.00 0.00 0.00 36 1014.9
20260504031208 10 283 8.0 9.7 0.00 0.00 0.00 36 1014.8
20260504030703 10 274 9.7 12.9 0.00 0.00 0.00 36 1014.7
20260504030201 10 309 6.4 6.4 0.00 0.00 0.00 35 1014.5
20260504025657 10 243 9.7 11.3 0.00 0.00 0.00 35 1014.7
20260504025154 11 282 8.0 9.7 0.00 0.00 0.00 34 1014.5
20260504024651 11 271 8.0 11.3 0.00 0.00 0.00 34 1014.5
20260504024147 11 277 6.4 6.4 0.00 0.00 0.00 34 1014.4
20260504023644 11 273 6.4 9.7 0.00 0.00 0.00 34 1014.8
20260504023140 11 281 9.7 11.3 0.00 0.00 0.00 33 1014.5
20260504022637 12 284 9.7 11.3 0.00 0.00 0.00 32 1014.3
20260504022133 12 278 9.7 11.3 0.00 0.00 0.00 32 1014.4
20260504021631 12 282 9.7 11.3 0.00 0.00 0.00 32 1014.5
20260504021127 13 259 12.9 16.1 0.00 0.00 0.00 31 1014.5
20260504020625 13 273 17.7 22.5 0.00 0.00 0.00 30 1014.4
20260504020120 13 279 12.9 14.5 0.00 0.00 0.00 30 1014.4
20260504015617 14 302 14.5 17.7 0.00 0.00 0.00 28 1014.3
20260504015113 14 261 14.5 20.9 0.00 0.00 0.00 28 1014.4
20260504014609 14 260 12.9 16.1 0.00 0.00 0.00 28 1014.4
20260504014107 14 278 9.7 11.3 0.00 0.00 0.00 28 1014.4
20260504013604 14 269 9.7 12.9 0.00 0.00 0.00 27 1014.3
20260504013101 14 262 12.9 14.5 0.00 0.00 0.00 27 1014.3
20260504012558 15 275 11.3 12.9 0.00 0.00 0.00 26 1014.4
20260504012056 16 276 17.7 24.1 0.00 0.00 0.00 25 1014.3
20260504011553 16 247 16.1 20.9 0.00 0.00 0.00 24 1014.8
20260504011049 16 294 17.7 20.9 0.00 0.00 0.00 24 1014.4
20260504010544 16 279 16.1 17.7 0.00 0.00 0.00 23 1014.7
20260504010041 17 287 12.9 14.5 0.00 0.00 0.00 23 1014.5
20260504005538 17 279 9.7 14.5 0.00 0.00 0.00 23 1014.7
20260504005035 17 273 17.7 24.1 0.00 0.00 0.00 23 1014.7
20260504004533 17 265 22.5 25.7 0.00 0.00 0.00 23 1014.7
20260504004030 17 274 22.5 25.7 0.00 0.00 0.00 22 1014.7
20260504003526 17 291 19.3 24.1 0.00 0.00 0.00 22 1014.8
20260504003023 17 282 12.9 20.9 0.00 0.00 0.00 21 1014.5
20260504002520 18 291 19.3 29.0 0.00 0.00 0.00 21 1014.7
20260504002017 18 285 14.5 16.1 0.00 0.00 0.00 21 1014.7
20260504001515 18 307 11.3 14.5 0.00 0.00 0.00 20 1014.4
20260504001011 18 290 14.5 16.1 0.00 0.00 0.00 20 1014.5
20260504000508 17 300 9.7 11.3 0.00 0.00 0.00 21 1014.4
20260504000005 17 291 14.5 17.7 0.00 0.00 0.00 21 1014.5
20260503235503 18 339 11.3 12.9 0.00 0.00 0.00 20 1014.5
20260503235000 17 8 9.7 11.3 0.00 0.00 0.00 20 1014.7
20260503234457 17 80 6.4 9.7 0.00 0.00 0.00 20 1014.7
20260503233955 18 348 14.5 17.7 0.00 0.00 0.00 20 1014.8
20260503233452 17 352 19.3 20.9 0.00 0.00 0.00 20 1014.8
20260503232948 17 312 14.5 16.1 0.00 0.00 0.00 21 1014.8
20260503232445 17 329 12.9 16.1 0.00 0.00 0.00 21 1014.8
20260503231943 17 326 11.3 12.9 0.00 0.00 0.00 21 1015.0
20260503231440 17 326 14.5 16.1 0.00 0.00 0.00 22 1014.8
20260503230936 18 291 14.5 16.1 0.00 0.00 0.00 21 1015.0
20260503230433 18 294 9.7 11.3 0.00 0.00 0.00 19 1014.9
20260503225931 18 247 9.7 12.9 0.00 0.00 0.00 19 1015.0
20260503225427 18 247 14.5 16.1 0.00 0.00 0.00 19 1015.2
20260503224923 18 320 16.1 17.7 0.00 0.00 0.00 19 1015.2
20260503224420 17 280 11.3 12.9 0.00 0.00 0.00 19 1015.0
20260503223918 17 287 19.3 24.1 0.00 0.00 0.00 19 1015.2
20260503223416 17 286 12.9 14.5 0.00 0.00 0.00 19 1015.2
20260503222911 17 263 12.9 14.5 0.00 0.00 0.00 20 1015.0
20260503222410 17 229 9.7 11.3 0.00 0.00 0.00 20 1015.2
20260503221907 17 279 9.7 12.9 0.00 0.00 0.00 20 1015.4
20260503221406 17 262 9.7 14.5 0.00 0.00 0.00 20 1015.5
20260503220902 17 271 12.9 14.5 0.00 0.00 0.00 20 1015.5
20260503220358 17 271 6.4 9.7 0.00 0.00 0.00 20 1015.6
20260503215855 17 261 12.9 14.5 0.00 0.00 0.00 20 1015.6
20260503215353 17 305 9.7 11.3 0.00 0.00 0.00 20 1015.8
20260503214850 17 291 4.8 4.8 0.00 0.00 0.00 20 1015.8
20260503214347 17 260 4.8 6.4 0.00 0.00 0.00 20 1015.9
20260503213844 17 315 12.9 16.1 0.00 0.00 0.00 20 1016.1
20260503213342 17 355 4.8 6.4 0.00 0.00 0.00 21 1016.1
20260503212839 16 1 9.7 12.9 0.00 0.00 0.00 21 1015.9
20260503212337 17 267 12.9 17.7 0.00 0.00 0.00 21 1016.1
20260503211834 17 351 6.4 9.7 0.00 0.00 0.00 20 1016.0
20260503211330 17 287 12.9 16.1 0.00 0.00 0.00 20 1016.0
20260503210826 17 314 9.7 11.3 0.00 0.00 0.00 19 1016.3
20260503210323 17 353 4.8 4.8 0.00 0.00 0.00 19 1016.1
20260503205818 17 358 9.7 11.3 0.00 0.00 0.00 19 1016.1
20260503205315 17 5 4.8 6.4 0.00 0.00 0.00 20 1016.1
20260503204811 17 289 12.9 14.5 0.00 0.00 0.00 20 1016.4
20260503204309 17 309 16.1 20.9 0.00 0.00 0.00 20 1016.4
20260503203806 17 347 9.7 12.9 0.00 0.00 0.00 19 1016.5
20260503203303 17 287 17.7 24.1 0.00 0.00 0.00 19 1016.5
20260503202800 17 290 14.5 16.1 0.00 0.00 0.00 18 1016.6
20260503202258 18 270 8.0 9.7 0.00 0.00 0.00 18 1016.5
20260503201756 19 329 6.4 11.3 0.00 0.00 0.00 18 1016.6
20260503201253 18 254 11.3 12.9 0.00 0.00 0.00 18 1016.8
20260503200750 20 264 16.1 16.1 0.00 0.00 0.00 17 1016.6
20260503200245 18 349 8.0 9.7 0.00 0.00 0.00 18 1016.6
20260503195742 17 293 1.6 3.2 0.00 0.00 0.00 17 1016.8
20260503195239 17 189 9.7 11.3 0.00 0.00 0.00 17 1016.9
20260503194737 18 262 6.4 6.4 0.00 0.00 0.00 19 1017.1
20260503194232 18 100 0.0 0.0 0.00 0.00 0.00 17 1017.0
20260503193728 18 209 6.4 9.7 0.00 0.00 0.00 18 1017.0
20260503193225 18 242 8.0 11.3 0.00 0.00 0.00 18 1017.2
20260503192721 17 286 9.7 14.5 0.00 0.00 0.00 17 1017.5
20260503192216 18 271 14.5 16.1 0.00 0.00 0.00 17 1017.5
20260503191713 17 228 12.9 14.5 0.00 0.00 0.00 19 1017.1
20260503191210 18 288 14.5 16.1 0.00 0.00 0.00 17 1017.6